Location: Hermaringen
(48.5952°N, 10.2585°E)
Time: 05:06:19
(UTC+00:00)

Transit 2A - Pass Details

Date: 22 February 2026
Orbit: 590 x 954 km, 66.7° (Epoch: 14 March)

Event Time Altitude Azimuth Distance (km) Brightness Sun altitude
Rises 19:29:05 0° 323° (NW) 3,578 10.2 -26.6°
Reaches altitude 10° 19:31:43 10° 322° (NW) 2,595 9.4 -27.0°
Maximum altitude 19:37:44 73° 239° (WSW) 892 6.3 -27.9°
Enters shadow 19:38:13 68° 200° (SSW) 908 6.2 -28.0°
